Location: Ellerstadt
(49.4644°N, 8.2615°E)
Time: 05:13:38
(UTC+00:00)

BREEZE-M DEB (TANK) - Pass Details

Date: 03 March 2021
Orbit: 308 x 15403 km, 49.5° (Epoch: 11 April)

Event Time Altitude Azimuth Distance (km) Brightness Sun altitude
Rises 19:46:22 0° 279° (W) 2,193 6.7 -25.3°
Reaches altitude 10° 19:47:42 10° 278° (W) 1,532 5.6 -25.5°
Enters shadow 19:50:12 70° 254° (WSW) 677 2.7 -25.9°
